Dewpoint
68 69 69 68 69 70 68 68 66 67 68 69 67 67 68 70 71 72 72 73 74 73 72 71 71 71 71 71 70 70 68 68 70 70 69 70 71 71 71 71 71 71 71
69 70 70 69 70 69 69 68 68 67 67 68 67 67 68 70 71 72 72 72 73 73 72 71 71 71 71 70 70 70 70 70 70 69 69 70 70 71 71 71 71 71 71
70 69 69 70 69 68 69 69 69 68 67 67 65 66 67 68 70 71 72 72 73 73 73 71 71 71 72 72 71 71 71 70 70 70 70 70 71 72 72 71 71 71 70
71 69 69 69 68 70 68 66 67 68 66 65 64 66 67 67 68 70 71 71 72 73 73 74 73 72 71 70 70 70 70 71 71 71 72 73 72 71 71 71 71 70 70
71 70 69 70 68 68 65 64 66 66 65 64 64 65 67 68 68 68 69 69 70 71 70 73 75 74 72 71 71 71 72 72 73 73 73 72 72 72 72 71 70 70 70
71 70 70 69 69 66 66 66 65 64 65 63 62 63 64 65 68 68 68 68 69 69 69 69 70 72 73 72 73 73 72 72 73 72 72 73 72 72 72 71 71 70 69
69 69 70 70 68 66 64 66 63 63 65 63 60 60 60 63 64 66 68 68 68 69 70 69 70 71 71 73 75 74 73 72 71 71 73 73 71 71 71 71 71 70 69
69 69 70 70 67 65 66 68 66 66 64 62 59 60 54 55 61 62 64 66 67 69 69 69 69 70 70 69 70 72 74 73 71 70 71 72 72 71 71 71 71 70 70
71 69 70 70 69 68 68 68 67 64 59 62 63 59 54 54 59 61 61 63 64 66 68 69 68 68 68 68 70 70 73 73 73 71 70 72 72 71 70 71 71 70 70
71 71 71 71 69 70 68 68 69 66 62 61 61 64 61 61 56 55 60 62 61 62 66 68 68 69 69 69 70 70 71 72 73 72 70 71 72 72 70 70 71 71 70
71 72 71 71 69 70 69 69 70 68 66 66 59 62 60 62 62 59 57 59 61 62 64 65 66 66 68 68 68 69 71 72 72 72 71 71 72 71 70 70 71 71 70
71 71 71 71 71 70 70 69 70 68 68 68 66 64 61 61 62 62 60 60 59 60 62 63 63 64 65 65 66 70 71 71 71 71 71 70 71 71 69 70 70 71 70
71 71 71 71 70 70 70 70 70 69 69 69 67 65 64 65 63 64 61 61 60 62 62 63 64 63 64 65 65 69 70 70 70 69 69 69 69 70 70 70 71 70 71
71 71 71 71 71 70 71 70 70 70 70 69 69 69 68 68 68 65 60 59 58 60 61 63 64 64 64 64 66 70 68 68 68 68 68 68 68 68 69 69 70 70 70
70 72 71 71 72 71 71 70 70 70 70 70 69 68 69 69 68 68 66 61 59 57 58 61 63 64 66 65 66 66 66 68 68 67 66 66 66 67 67 68 68 68 68
70 71 71 71 71 71 71 71 70 70 69 70 71 70 68 69 69 69 69 66 64 60 59 61 62 64 68 68 68 68 68 69 68 67 66 66 66 66 67 67 67 67 67
70 70 72 71 71 71 71 71 70 70 70 70 70 70 70 69 70 69 70 70 68 64 63 64 65 68 68 67 69 70 71 70 69 68 67 67 66 65 66 66 66 66 66
68 69 70 71 71 71 71 71 71 71 70 70 70 70 70 70 70 70 69 69 68 68 66 65 66 68 68 70 70 70 71 71 72 69 67 66 65 64 64 64 63 63 62
67 70 71 72 71 71 71 71 71 71 71 71 70 70 70 70 70 70 70 70 70 70 69 68 69 69 70 70 70 70 70 70 71 69 67 67 66 66 66 64 62 61 58
66 67 72 72 72 71 71 71 71 71 71 71 71 71 71 71 70 69 70 70 70 70 69 68 68 68 69 70 70 69 70 70 69 70 70 68 68 69 69 66 64 61 58
66 65 68 72 72 72 71 71 72 71 71 71 71 71 71 71 70 70 70 70 70 69 69 69 68 68 69 69 69 69 68 69 69 71 70 72 73 73 73 67 62 61 58
67 66 66 67 71 71 67 67 70 71 71 71 70 70 71 70 70 67 67 68 70 70 69 69 69 69 69 69 68 68 67 67 67 71 73 71 73 72 73 63 61 59 58
65 66 67 68 68 70 65 65 67 70 70 71 71 70 71 71 70 71 68 66 66 66 68 71 70 70 69 69 68 67 68 68 68 71 73 73 72 71 69 61 59 58 57
65 64 64 66 69 69 65 63 65 70 70 70 71 71 71 71 71 71 71 71 71 71 69 68 70 71 71 71 70 70 69 69 70 72 74 70 71 72 65 59 58 58 56
65 65 63 63 66 67 63 62 64 69 69 70 70 71 72 72 68 64 71 70 70 71 68 63 64 64 63 62 65 69 69 68 69 71 72 72 71 72 67 62 58 57 55
67 67 66 64 63 66 61 62 63 70 70 70 70 70 65 69 64 62 69 70 70 70 70 70 69 66 63 66 62 68 70 70 69 69 71 71 71 70 65 65 61 59 57
Lifted_Index
-1 -1 -1 -1 -1 -1 -1 -1 -1 -1 -1 -1 -1 -1 -2 -2 -3 -3 -4 -4 -4 -4 -4 -3 -3 -3 -3 -3 -2 -2 -2 -1 -2 -2 -1 -2 -2 -2 -2 -2 -2 -2 -2
-2 -1 -1 -1 -1 -1 -1 -1 -1 -1 -1 -1 -1 -1 -1 -2 -2 -3 -3 -3 -4 -4 -3 -3 -3 -3 -3 -3 -2 -2 -2 -2 -2 -2 -2 -2 -2 -2 -3 -3 -2 -2 -2
-2 -2 -1 -1 -1 -1 -1 -1 -1 -1 -1 -1 -1 -1 -1 -1 -2 -2 -3 -3 -3 -4 -3 -3 -3 -3 -3 -3 -2 -2 -2 -2 -2 -2 -2 -3 -3 -3 -3 -3 -2 -2 -2
-2 -2 -1 -1 -1 -1 -0 -0 -1 -1 -1 -1 -1 -1 -1 -1 -1 -1 -2 -2 -3 -3 -3 -3 -3 -3 -3 -3 -3 -3 -3 -3 -3 -3 -4 -4 -3 -3 -3 -3 -2 -2 -2
-2 -2 -1 -1 -1 -1 -0 0 -0 -0 -0 -1 -1 -1 -1 -1 -1 -1 -1 -2 -2 -2 -3 -3 -3 -3 -3 -3 -3 -4 -4 -4 -4 -4 -4 -4 -4 -4 -3 -3 -2 -2 -2
-2 -2 -2 -1 -1 -0 0 0 0 0 -0 -0 -0 -1 -1 -1 -1 -1 -1 -1 -2 -2 -2 -2 -3 -3 -3 -4 -4 -5 -4 -4 -4 -4 -4 -4 -3 -3 -3 -3 -2 -2 -1
-1 -1 -1 -1 -1 -0 -0 0 0 0 0 0 0 0 -0 -0 -1 -1 -1 -1 -2 -2 -2 -2 -3 -3 -3 -4 -4 -5 -5 -4 -4 -3 -3 -3 -3 -3 -3 -2 -2 -2 -1
-1 -1 -1 -1 -1 -0 -0 -0 -0 0 0 1 1 1 1 0 -0 -0 -1 -1 -2 -2 -3 -3 -3 -3 -3 -3 -3 -4 -5 -4 -3 -3 -3 -3 -3 -2 -2 -2 -2 -1 -1
-2 -1 -1 -1 -1 -1 -1 -1 -1 0 1 1 1 1 1 1 0 0 -0 -1 -1 -2 -2 -3 -3 -3 -3 -3 -3 -3 -4 -4 -4 -3 -3 -3 -3 -2 -2 -2 -2 -1 -1
-2 -2 -2 -2 -1 -1 -2 -1 -1 -0 1 1 1 0 0 0 0 0 -0 -0 -1 -1 -2 -2 -3 -3 -3 -3 -3 -3 -3 -4 -4 -3 -3 -3 -3 -2 -2 -2 -2 -1 -1
-3 -2 -2 -2 -2 -2 -2 -2 -2 -1 -0 -0 0 0 0 0 -0 -1 -1 -1 -1 -1 -2 -2 -2 -3 -3 -3 -3 -3 -3 -3 -4 -3 -3 -3 -3 -2 -2 -2 -2 -1 -1
-3 -3 -3 -3 -3 -2 -2 -2 -2 -2 -1 -1 -1 -0 -0 -1 -1 -1 -2 -2 -2 -2 -2 -2 -3 -3 -3 -3 -3 -3 -3 -3 -3 -3 -3 -3 -3 -3 -3 -2 -2 -2 -2
-3 -3 -3 -3 -3 -3 -2 -2 -2 -2 -2 -2 -2 -1 -1 -2 -2 -2 -2 -2 -2 -2 -2 -3 -3 -3 -3 -3 -3 -3 -3 -3 -3 -3 -3 -4 -4 -4 -3 -3 -3 -3 -3
-3 -3 -3 -3 -3 -3 -3 -2 -2 -3 -3 -2 -2 -2 -2 -2 -3 -3 -3 -2 -2 -2 -3 -3 -3 -3 -4 -3 -3 -3 -3 -3 -4 -4 -4 -5 -5 -5 -4 -4 -4 -4 -4
-3 -3 -3 -3 -3 -3 -3 -3 -3 -3 -3 -3 -3 -3 -2 -3 -3 -3 -4 -3 -2 -2 -2 -3 -3 -4 -4 -4 -4 -4 -4 -4 -5 -5 -5 -6 -6 -6 -5 -5 -4 -5 -5
-3 -3 -3 -3 -3 -3 -3 -3 -3 -3 -3 -3 -3 -3 -3 -3 -3 -3 -4 -3 -3 -3 -3 -3 -3 -4 -4 -5 -5 -5 -6 -6 -6 -5 -5 -6 -6 -6 -6 -5 -6 -6 -6
-3 -3 -3 -3 -3 -3 -3 -3 -3 -3 -3 -3 -3 -4 -4 -4 -4 -4 -4 -4 -4 -4 -3 -3 -4 -4 -5 -5 -5 -6 -6 -6 -6 -5 -5 -5 -6 -6 -6 -6 -6 -6 -6
-2 -2 -2 -3 -3 -3 -3 -3 -3 -3 -3 -3 -4 -4 -4 -4 -4 -5 -4 -4 -4 -4 -4 -4 -4 -5 -5 -5 -5 -6 -6 -6 -5 -5 -5 -6 -6 -6 -6 -7 -7 -6 -6
-0 -1 -2 -3 -3 -3 -3 -3 -3 -3 -3 -4 -4 -4 -4 -4 -4 -5 -4 -4 -4 -4 -4 -5 -5 -5 -5 -5 -6 -6 -6 -6 -5 -5 -5 -6 -7 -7 -7 -7 -7 -6 -6
0 -0 -1 -2 -3 -3 -3 -3 -3 -3 -3 -4 -4 -4 -4 -4 -4 -4 -4 -4 -4 -4 -5 -5 -5 -5 -5 -5 -6 -6 -5 -5 -5 -6 -6 -6 -7 -7 -7 -7 -7 -6 -5
-0 -0 -1 -2 -3 -3 -3 -3 -3 -3 -3 -4 -4 -4 -4 -4 -4 -4 -4 -4 -4 -4 -4 -5 -5 -5 -5 -5 -5 -5 -5 -5 -6 -6 -6 -7 -7 -7 -7 -7 -6 -5 -4
-0 -0 -0 -1 -2 -3 -3 -4 -4 -4 -3 -3 -3 -3 -4 -4 -4 -4 -4 -4 -5 -5 -5 -5 -5 -5 -5 -5 -5 -5 -5 -6 -6 -6 -7 -7 -8 -8 -7 -6 -5 -4 -3
-1 -1 -0 -1 -1 -2 -3 -3 -3 -3 -3 -3 -3 -3 -3 -4 -4 -5 -5 -5 -5 -5 -5 -5 -5 -5 -5 -5 -5 -5 -6 -6 -6 -6 -7 -8 -8 -8 -7 -6 -5 -3 -2
-1 -1 -1 -1 -1 -2 -2 -2 -3 -3 -3 -3 -3 -3 -3 -3 -4 -4 -5 -5 -5 -5 -5 -5 -5 -5 -5 -5 -5 -6 -6 -6 -6 -7 -7 -8 -8 -8 -7 -6 -4 -2 -0
-2 -2 -2 -2 -2 -2 -2 -2 -2 -3 -3 -3 -3 -3 -3 -3 -4 -4 -4 -4 -4 -4 -4 -4 -4 -5 -5 -5 -5 -5 -6 -6 -7 -7 -7 -8 -8 -8 -7 -5 -4 -1 0
-3 -3 -2 -2 -2 -2 -2 -2 -3 -3 -3 -3 -3 -3 -3 -3 -3 -3 -3 -3 -4 -4 -4 -4 -4 -4 -5 -5 -5 -5 -6 -7 -7 -7 -8 -8 -8 -7 -6 -5 -3 -1 1